SCP
0 0 0 0 0 0 0 0 0 0 0 0 0 0 0 0 0 0 0 0 0 0 0 0 0 0 0 0 0 0 0 0 0 0 0 0 0 0 0 0 0 0 0
0 0 0 0 0 0 0 0 0 0 0 0 0 0 0 0 0 0 0 0 0 0 0 0 0 0 0 0 0 0 0 0 0 0 0 0 0 0 0 0 0 0 0
0 0 0 0 0 0 0 0 0 0 0 0 0 0 0 0 0 0 0 0 0 0 0 0 0 0 0 0 0 0 0 0 0 0 0 0 0 0 0 0 0 0 0
0 0 0 0 0 0 0 0 0 0 0 0 0 0 0 0 0 0 0 0 0 0 0 0 0 0 0 0 0 0 0 0 0 0 0 0 0 0 0 0 0 0 0
0 0 0 0 0 0 0 0 0 0 0 0 0 0 0 0 0 0 0 0 0 0 0 0 0 0 0 0 0 0 0 0 0 0 0 0 0 0 0 0 0 0 0
0 0 0 0 0 0 0 0 0 0 0 0 0 0 0 0 0 0 0 0 0 0 0 0 0 0 0 0 0 0 0 0 0 0 0 0 0 0 0 0 0 0 0
0 0 0 0 0 0 0 0 0 0 0 0 0 0 0 0 0 0 0 0 0 0 0 0 0 0 0 0 0 0 0 0 0 0 0 0 0 0 0 0 0 0 0
0 0 0 0 0 0 0 0 0 0 0 0 0 0 0 0 0 0 0 0 0 0 0 0 0 0 0 0 0 0 0 0 0 0 0 0 0 0 0 0 0 0 0
0 0 0 0 0 0 0 0 0 0 0 0 0 0 0 0 0 0 0 0 0 0 0 0 0 0 0 0 0 0 0 0 0 0 0 0 0 0 0 0 0 0 0
0 0 0 0 0 0 0 0 0 0 0 0 0 0 0 0 0 0 0 0 0 0 0 0 0 0 0 0 0 0 0 0 0 0 0 0 0 0 0 0 0 0 0
0 0 0 0 0 0 0 0 0 0 0 0 0 0 0 0 0 0 0 0 0 0 0 0 0 0 0 0 0 0 0 0 0 0 0 0 0 0 0 0 0 0 0
0 0 0 0 0 0 0 0 0 0 0 0 0 0 0 0 0 0 0 0 0 0 0 0 0 0 0 0 0 0 0 0 0 0 1 0 0 0 0 0 0 0 0
0 0 0 0 0 0 0 0 0 0 0 0 0 0 0 0 0 0 0 0 0 0 0 0 0 0 0 0 0 0 0 0 0 0 1 1 1 0 0 0 0 0 0
0 0 0 0 0 0 0 0 0 0 0 0 0 0 0 0 0 0 0 0 0 0 0 0 0 0 0 0 0 0 0 0 0 0 0 0 1 0 0 0 0 0 0
0 0 0 0 0 0 0 0 0 0 0 0 0 0 0 0 0 0 0 0 0 0 0 0 0 0 0 0 0 0 0 0 0 0 0 0 0 0 0 0 0 0 0
0 0 0 0 0 0 0 0 0 0 0 0 0 0 0 0 0 0 0 0 0 0 0 0 0 0 0 0 0 0 0 0 0 0 0 0 0 0 0 0 0 0 0
0 0 0 0 0 0 0 0 0 0 0 0 0 0 0 0 0 0 0 0 0 0 0 0 0 0 0 0 0 0 0 0 0 0 0 0 0 0 0 0 0 0 0
0 0 0 0 0 0 0 0 0 0 0 0 0 0 0 0 0 0 0 0 0 0 0 0 0 0 0 0 0 0 0 0 0 0 0 0 0 0 0 0 0 0 0
0 0 0 0 0 0 0 0 0 0 0 0 0 0 0 0 0 0 0 0 0 0 0 0 0 0 0 0 0 0 0 0 0 0 0 0 0 0 0 0 0 0 0
0 0 0 0 0 0 0 0 0 0 0 0 0 0 0 0 0 0 0 0 0 0 0 0 0 0 0 0 0 0 0 0 0 0 0 0 0 0 0 0 0 0 0
0 0 0 0 0 0 0 0 0 0 0 0 0 0 0 0 0 0 0 0 0 0 0 0 0 0 0 0 0 0 0 0 0 0 0 0 0 0 0 0 0 0 0
0 0 0 0 0 0 0 0 0 0 0 0 0 0 0 0 0 0 0 0 0 0 0 0 0 0 0 0 0 0 0 0 0 0 0 0 0 0 0 0 0 0 0
0 0 0 0 0 0 0 0 0 0 0 0 0 0 0 0 0 0 0 0 0 0 0 0 0 0 0 0 0 0 0 0 0 0 0 0 0 0 0 0 0 0 0
0 0 0 0 0 0 0 0 0 0 0 0 0 0 0 0 0 0 0 0 0 0 0 0 0 0 0 0 0 0 0 0 0 0 0 0 0 0 0 0 0 0 0
0 0 0 0 0 0 0 0 0 0 0 0 0 0 0 0 0 0 0 0 0 0 0 0 0 0 0 0 0 0 0 0 0 0 0 0 0 0 0 0 0 0 0
0 0 0 0 0 0 0 0 0 0 0 0 0 0 0 0 0 0 0 0 0 0 0 0 0 0 0 0 0 0 0 0 0 0 0 0 0 0 0 0 0 0 0
Wind_Speed
3 3 2 2 3 2 3 3 3 4 4 4 3 3 3 4 4 4 3 11 12 13 13 14 13 13 12 12 12 11 11 12 12 12 11 11 11 11 11 10 10 9 9
2 2 3 2 3 3 3 3 4 3 3 3 3 3 3 3 3 3 3 6 12 13 14 14 14 14 13 13 12 12 12 13 13 13 12 12 12 11 11 10 9 9 8
2 2 2 2 3 3 3 3 3 3 3 3 3 3 2 2 2 3 4 3 5 11 13 14 14 14 14 14 13 13 13 13 13 13 13 13 12 11 10 10 9 9 8
3 2 2 2 3 2 2 2 2 2 3 2 2 3 2 2 2 3 4 4 3 4 8 12 13 14 15 15 14 14 14 13 13 14 13 12 12 11 11 10 9 9 8
3 2 2 2 2 2 2 2 1 2 2 2 3 3 2 2 2 3 4 4 4 4 4 8 12 13 14 15 15 15 15 15 14 14 14 13 12 11 11 10 10 9 8
4 3 2 3 2 1 2 1 2 2 2 2 3 3 2 2 2 3 4 4 4 5 5 6 6 8 12 14 14 16 16 16 16 15 15 14 13 12 12 11 10 9 8
4 3 2 3 2 1 2 2 1 2 1 1 1 2 2 2 3 3 3 4 5 6 5 6 6 5 6 12 14 15 17 17 17 16 16 15 14 13 13 12 11 10 9
5 4 3 2 2 2 2 2 1 1 1 1 1 0 1 2 3 4 3 4 5 5 6 8 7 7 6 5 9 14 15 16 17 18 17 16 14 14 13 13 12 11 10
5 4 3 2 2 1 2 2 1 1 1 1 2 2 2 2 2 2 3 3 4 4 5 5 7 8 8 6 7 12 14 15 17 19 18 17 16 15 14 14 13 12 11
5 4 3 3 2 2 2 2 1 1 1 1 1 2 2 2 1 2 2 1 3 5 6 6 7 7 7 6 8 11 15 15 17 19 19 18 18 17 16 15 14 13 12
5 4 4 3 3 2 2 2 2 1 1 2 2 1 2 1 2 2 2 2 1 2 4 5 5 6 7 7 7 10 15 16 17 18 19 19 19 18 17 16 15 14 13
4 5 4 3 3 2 2 2 2 2 2 2 2 2 2 2 2 2 2 2 2 2 2 3 4 5 6 7 11 15 17 17 18 17 17 17 18 19 19 18 17 15 15
3 5 4 3 3 3 3 3 2 2 2 3 3 3 3 3 3 3 2 2 2 1 1 2 4 4 6 6 8 14 16 17 18 18 17 16 17 17 18 19 18 17 16
3 4 4 4 4 4 3 2 2 3 2 3 4 3 3 3 3 3 3 3 2 2 2 3 2 4 4 5 8 13 11 17 18 18 18 16 16 16 16 17 17 17 17
3 4 4 4 4 4 3 3 2 3 3 3 3 3 3 3 3 3 3 4 4 3 3 4 3 3 3 4 6 7 7 14 18 18 18 17 16 16 16 15 15 14 14
4 5 5 5 4 4 4 3 2 3 3 3 2 3 3 2 3 3 3 3 4 4 4 3 3 2 3 4 6 6 7 11 16 17 17 17 17 16 16 15 14 14 13
4 4 4 4 4 4 4 3 3 3 3 3 3 3 4 3 2 2 3 3 3 4 5 3 2 2 3 3 3 4 5 6 7 15 16 17 17 17 17 16 15 14 14
3 4 4 4 4 4 3 3 3 3 3 4 4 4 4 3 2 2 2 3 3 4 4 4 3 3 4 4 5 5 5 5 5 11 16 17 17 17 17 16 16 15 15
3 4 3 4 4 4 4 3 3 3 3 4 4 4 4 3 3 2 3 3 3 3 3 4 3 2 2 3 3 4 4 4 5 8 12 15 16 17 16 16 16 15 15
3 3 3 4 4 4 4 4 3 4 4 4 4 4 4 3 4 3 3 3 3 3 3 3 3 2 2 2 3 3 4 4 5 5 6 8 11 15 16 16 16 16 16
3 3 3 4 4 4 4 4 4 4 3 4 4 4 4 5 6 4 3 3 3 3 3 3 3 3 3 3 4 3 4 3 4 4 4 5 6 7 10 14 16 17 17
4 3 4 4 5 4 7 8 5 3 3 4 5 5 5 5 5 5 5 5 5 5 5 4 4 5 5 4 4 4 4 4 4 4 5 5 5 7 7 7 12 16 18
3 4 4 4 5 6 10 9 8 3 3 4 4 4 4 4 4 3 4 5 5 7 8 6 6 6 5 5 5 5 5 5 4 4 4 5 5 6 6 7 14 17 18
4 4 5 5 5 7 9 8 8 3 3 4 4 4 4 4 4 4 3 3 4 4 5 5 6 6 6 5 6 6 5 3 2 2 4 4 4 4 4 5 13 17 17
4 4 4 5 5 7 9 7 6 2 3 5 5 4 4 4 7 6 3 3 4 4 5 7 7 8 8 9 7 4 4 4 3 3 3 3 3 2 3 4 7 14 15
5 5 5 5 5 6 9 8 5 1 3 4 4 4 6 6 7 6 3 3 5 5 4 4 5 6 6 7 10 8 7 6 3 3 4 5 4 3 2 2 4 6 8
Wind_Direction
273 274 267 259 253 242 233 235 238 234 230 234 231 238 246 237 238 216 221 221 211 202 197 188 181 180 179 178 176 171 166 162 160 157 154 150 146 143 142 140 138 136 133
274 282 277 266 257 247 237 230 233 237 235 233 239 234 233 226 228 219 216 221 211 202 197 191 185 183 182 181 179 175 171 168 165 163 160 155 152 149 148 146 144 142 138
297 290 287 281 267 260 250 242 239 231 236 241 240 237 225 211 217 215 214 218 211 206 199 194 188 186 185 184 182 178 175 173 171 169 166 162 159 157 156 154 151 147 143
343 331 309 292 280 268 255 251 239 233 236 240 249 248 227 205 210 215 208 212 205 205 205 199 191 189 188 187 184 181 180 180 177 173 171 169 166 163 162 162 158 155 152
339 339 312 299 302 289 265 270 252 230 237 247 255 250 237 222 211 226 215 210 206 204 199 203 197 191 191 190 189 186 184 183 182 179 177 174 171 170 170 169 165 163 162
338 339 320 318 325 313 292 282 268 251 235 241 260 262 249 245 230 225 219 209 209 212 203 199 195 197 197 193 192 191 188 187 186 185 184 182 179 178 177 176 174 173 173
336 336 333 329 332 314 290 280 262 267 261 210 225 282 278 243 231 226 213 206 207 210 203 199 193 191 200 200 196 195 193 191 190 190 189 187 185 183 182 182 183 182 182
339 343 343 329 329 329 326 312 264 251 255 194 168 188 294 304 263 231 206 205 207 201 204 205 200 195 194 193 201 198 196 194 194 194 193 191 189 189 187 188 190 189 189
346 343 340 338 336 338 318 309 284 230 247 237 188 181 187 233 283 292 235 216 199 195 205 202 205 201 199 195 195 203 198 195 197 198 196 194 193 194 193 193 194 194 195
343 345 344 344 340 337 318 305 322 250 228 242 239 218 212 195 196 300 308 256 212 203 201 205 207 205 201 197 199 200 200 198 200 202 201 198 197 197 197 197 197 198 195
333 336 335 341 335 321 309 306 312 293 233 222 217 216 230 225 207 197 266 296 277 227 206 204 204 205 205 200 200 203 201 199 202 204 204 202 200 200 200 199 201 199 197
317 325 326 325 320 315 303 295 291 293 269 252 237 212 201 207 204 195 224 252 259 255 224 207 202 206 206 203 210 207 202 201 202 205 204 204 203 202 202 202 203 202 200
310 313 322 314 309 302 295 287 284 285 274 265 252 236 224 224 208 192 203 228 242 265 247 227 211 201 208 204 212 209 205 203 203 204 203 203 203 203 204 205 204 204 203
288 302 316 316 312 309 307 299 290 281 274 266 263 250 234 235 219 203 192 185 222 256 248 241 227 207 209 204 212 208 209 206 206 205 203 202 201 202 203 205 206 206 204
305 321 324 326 324 322 316 313 300 295 292 273 266 259 242 237 228 220 206 190 188 217 240 231 220 211 207 205 203 201 205 207 208 206 204 202 200 200 201 202 203 202 200
321 326 330 331 333 333 331 327 312 306 310 296 282 281 268 250 240 223 216 211 200 200 227 231 218 214 212 219 201 197 205 208 210 208 205 203 201 200 200 199 198 196 194
319 326 328 333 336 338 339 338 323 323 324 313 308 298 285 270 248 232 220 212 206 199 227 243 218 212 204 217 207 205 202 203 208 209 208 206 203 201 200 198 196 195 193
314 319 326 334 337 340 339 335 322 326 316 312 309 305 295 291 267 244 224 221 215 206 212 235 223 206 213 212 207 204 210 209 207 211 210 208 205 201 200 199 197 195 194
312 321 325 325 324 324 325 320 307 306 298 292 293 291 286 288 279 260 238 227 221 218 210 223 230 209 213 204 201 207 207 209 210 211 211 210 206 203 201 199 197 195 194
299 307 306 306 307 308 307 305 304 302 301 297 292 288 280 266 264 260 250 236 225 220 214 224 232 220 214 201 187 197 206 206 208 202 205 206 206 204 202 201 199 196 194
290 291 299 307 308 303 298 300 295 298 299 303 302 295 288 281 275 262 253 230 215 217 218 221 229 221 211 195 202 194 205 200 207 193 187 197 199 205 204 205 203 200 196
289 293 293 297 303 302 310 311 306 295 299 300 302 305 300 293 296 296 289 260 226 219 221 216 223 225 224 213 202 197 194 194 213 192 186 201 194 205 205 203 201 198 197
276 286 286 287 289 292 302 310 314 304 297 296 295 299 307 313 320 301 298 298 274 254 234 218 220 226 222 212 198 202 203 202 211 185 177 205 198 209 202 201 195 196 196
264 270 276 279 282 290 299 303 312 307 300 303 299 291 291 300 302 296 288 295 286 277 258 240 229 231 228 218 205 206 204 203 212 188 173 201 196 206 197 200 196 195 194
265 264 269 274 278 288 295 295 305 299 298 301 301 298 293 290 298 302 284 285 291 286 272 258 249 245 240 227 204 184 186 192 216 208 183 182 180 180 190 204 199 194 192
260 270 276 272 268 276 288 289 291 259 284 293 299 297 294 290 296 297 274 269 277 278 280 283 271 264 248 227 211 203 198 201 199 207 188 173 170 159 185 202 191 189 193